Regional Weather Roundup
Issued by NWS Binghamton, NY

Home | Current Version | Previous Version | Text Only | Print | Product List | Glossary On
Versions: 1 2 3 4 5 6 7 8 9 10 11 12 13 14 15 16 17 18 19 20 21 22 23 24 25 26 27 28 29 30 31 32 33 34 35 36 37 38 39 40 41 42 43 44 45 46 47 48 49 50
000
ASUS41 KBGM 211110
RWRBGM

REGIONAL WEATHER ROUNDUP
NATIONAL WEATHER SERVICE BINGHAMTON NY
700 AM EDT FRI JUL 21 2017

Note: "fair" indicates few or no clouds below 12,000 feet with no
significant weather and/or obstructions to visibility.

* = Station(s) that does not report precipitation, such as rain,
snow, etc, also no thunder or fog.

NYZ009-015>018-022>025-036-037-044>046-055>057-062-211200
...Central New York...

CITY           SKY/WX    TMP DP  RH WIND       PRES   REMARKS
Binghamton     FOG       65  65 100 W6        29.97R VSB<1/4
Cortland       FAIR      66  66 100 SW3       29.96S FOG
Dansville      MOSUNNY   67  65  93 SE7       29.96R
Elmira         FOG       66  65  96 W5        29.96R VSB 1/8
Seneca Falls   SUNNY     70  68  94 CALM      29.94R
Ithaca         SUNNY     68  67  96 W3        29.97R
Hamilton       CLOUDY    70  64  83 CALM      29.95R
Hornell        MOSUNNY   64  64 100 CALM      30.01R FOG
Monticello     NOT AVBL
Norwich        PTSUNNY   68  66  94 CALM      29.96R
Oneonta        SUNNY     66 N/A N/A W3        29.97R
Penn Yan       MOSUNNY   69  66  90 S6        29.96R FOG
Rome           SUNNY     63  61  93 CALM      29.92S
Sidney         CLOUDY   N/A N/A N/A CALM      29.96R
Syracuse       PTSUNNY   70  69  97 W7        29.91R
$$

PAZ038>040-043-044-047-048-072-211200
...Northeast Pennsylvania...

CITY           SKY/WX    TMP DP  RH WIND       PRES   REMARKS
Hazleton         N/A     70  68  94 W3        30.02R
Scranton       CLOUDY    69  69 100 SW6       29.96R FOG
$$
&&
KEY
WCI = Wind Chill Index
VSB = Visibility
HX  = Heat Index
$$



USA.gov is the U.S. government's official web portal to all federal, state and local government web resources and services.